Location: Unspecified
(0.0000°N, 0.0000°E)
Time: 20:17:28
(UTC+00:00)

STARLINK-32799 - Pass Details

Date: 11 March 2026
Orbit: 482 x 484 km, 43.0° (Epoch: 11 April)

Event Time Altitude Azimuth Distance (km) Brightness Sun altitude
Rises 18:37:51 0° 249° (WSW) 2,539 ? -7.0°
Reaches altitude 10° 18:40:27 10° 266° (W) 1,655 ? -7.6°
Maximum altitude 18:43:18 20° 315° (NW) 1,149 ? -8.3°
Drops below altitude 10° 18:46:08 10° 4° (N) 1,647 ? -9.0°
Enters shadow 18:49:57 -4° 26° (NNE) 2,978 ? -10.0°
